This is the latest recevied weather packets stored in our database for station/object W5CRT. If no packets are shown the sender has not sent any weather packets the latest 10 day(s).
| Time | Temp. | Humidity | Pressure | Rain* | Wind** | Luminosity | Snow |
|---|---|---|---|---|---|---|---|
| 1778110947 | 14.44° C | 83% | 1012.3 hPa | 0 mm | - | 43 W/m² | - |
| 1778110645 | 15° C | 82% | 1012.3 hPa | 0 mm | - | 40 W/m² | - |
| 1778110341 | 15° C | 82% | 1012.1 hPa | 0 mm | - | 61 W/m² | - |
| 1778110037 | 15° C | 82% | 1012.3 hPa | 0 mm | - | 82 W/m² | - |
| 1778109732 | 15° C | 82% | 1012.1 hPa | 0 mm | - | 75 W/m² | - |
| 1778109430 | 15° C | 81% | 1012.2 hPa | 0 mm | - | 86 W/m² | - |
| 1778109129 | 15° C | 81% | 1011.7 hPa | 0 mm | - | 137 W/m² | - |
| 1778108825 | 15° C | 81% | 1011.8 hPa | 0 mm | - | 158 W/m² | - |
| 1778108522 | 15° C | 82% | 1012.1 hPa | 0 mm | - | 224 W/m² | - |
| 1778108218 | 14.44° C | 81% | 1012.1 hPa | 0 mm | - | 100 W/m² | - |
| 1778107915 | 14.44° C | 80% | 1012.3 hPa | 0 mm | - | 81 W/m² | - |
| 1778107611 | 14.44° C | 81% | 1012.1 hPa | 0 mm | - | 94 W/m² | - |
| 1778107308 | 15° C | 80% | 1012.1 hPa | 0 mm | - | 126 W/m² | - |
| 1778107005 | 14.44° C | 82% | 1012 hPa | 0 mm | - | 115 W/m² | - |
| 1778106700 | 14.44° C | 81% | 1012.1 hPa | 0 mm | - | 134 W/m² | - |
| 1778106398 | 14.44° C | 82% | 1012.1 hPa | 0 mm | - | 103 W/m² | - |
| 1778106094 | 14.44° C | 81% | 1012 hPa | 0 mm | - | 107 W/m² | - |
| 1778105792 | 14.44° C | 81% | 1011.8 hPa | 0 mm | - | 113 W/m² | - |
| 1778105490 | 14.44° C | 81% | 1012 hPa | 0 mm | - | 128 W/m² | - |
| 1778105186 | 14.44° C | 81% | 1011.9 hPa | 0 mm | - | 118 W/m² | - |
| 1778104881 | 14.44° C | 81% | 1011.6 hPa | 0 mm | - | 120 W/m² | - |
| 1778104578 | 14.44° C | 81% | 1011.7 hPa | 0 mm | - | 120 W/m² | - |
| 1778104273 | 14.44° C | 82% | 1011.9 hPa | 0 mm | - | 133 W/m² | - |
| 1778103971 | 14.44° C | 80% | 1011.7 hPa | 0 mm | - | 147 W/m² | - |
| 1778103668 | 14.44° C | 81% | 1011.6 hPa | 0 mm | - | 155 W/m² | - |
* Rain latest hour (hover to see other rain measurements)
** Current wind speed in m/s (hover to see current wind gust speed)